Regional Weather Roundup
Issued by NWS

Home | Current Version | Previous Version | Graphics & Text | Print | Product List | Glossary On
Versions: 1 2 3 4 5 6 7 8 9 10 11 12 13 14 15 16 17 18 19 20 21 22 23 24 25 26 27 28 29 30 31 32 33 34 35 36 37 38 39 40 41 42 43 44 45 46 47 48 49 50
000
ASUS43 KIND 011559
RWRIN

WEATHER ROUNDUP FOR INDIANA
NATIONAL WEATHER SERVICE INDIANAPOLIS IN
1200 PM EDT SUN MAY 01 2016

NOTE: "FAIR" INDICATES FEW OR NO CLOUDS BELOW 12,000 FEET WITH NO
SIGNIFICANT WEATHER AND/OR OBSTRUCTIONS TO VISIBILITY.

* - STATION DOES NOT REPORT WEATHER SUCH AS PRECIPITATION OR FOG.

+ - STATION NOT QUALITY CONTROLLED BY THE NATIONAL WEATHER SERVICE.
    USE DATA WITH CAUTION...ESPECIALLY DEWPOINT AND RELATIVE
    HUMIDITY OBSERVATIONS.

INZ001>003-010>013-019-020-011700-
NORTHWEST INDIANA

CITY           SKY/WX    TMP DP  RH WIND       PRES   REMARKS
RENSSELAER +   CLOUDY    52  52 100 NE6       29.96S FOG

$$

LMZ046-743>745-011700-
SOUTHERN LAKE MICHIGAN

STATION/POSITION TIME  TEMP    WIND        PRES    WAVE
                       AIR SEA DIR/SP/G            HT
                 (UTC) (F)     (DEG/KT/KT) (MB)    (FT)
BURNS HARBOR     1514   45      40/ 13/ 18 1015.6S
MICHIGAN CITY    1500   44     360/ 14/ 16   N/A

$$

INZ004-005-014>016-021>024-011700-
NORTH CENTRAL INDIANA

CITY           SKY/WX    TMP DP  RH WIND       PRES   REMARKS
ELKHART        CLOUDY    52  52 100 MISG      29.97S
GOSHEN         CLOUDY    53  50  89 NE8       29.96S
PERU/GRISSOM   CLOUDY    59  59 100 NW2       29.93S FOG
SOUTH BEND     CLOUDY    53  50  89 NE8       29.97S

$$

INZ006>009-017-018-025>027-011700-
NORTHEAST INDIANA

CITY           SKY/WX    TMP DP  RH WIND       PRES   REMARKS
ANGOLA *+      CLOUDY    52  48  87 NE3       29.96R
FORT WAYNE     CLOUDY    56  53  90 VRB3      29.97R FOG

$$

INZ028-029-035-036-043>045-051>053-011700-
WEST CENTRAL INDIANA

CITY           SKY/WX    TMP DP  RH WIND       PRES   REMARKS
CRAWFORDSVL +  CLOUDY    63  60  88 NE3       29.94S
GREENCASTLE +  PTSUNNY   64  59  82 CALM      29.94S
LAFAYETTE      CLOUDY    59  55  87 N6        29.94R
TERRE HAUTE    PTSUNNY   68  56  65 CALM      29.93S

$$

INZ030>032-037>040-046>048-054>057-064-065-011700-
CENTRAL INDIANA

CITY           SKY/WX    TMP DP  RH WIND       PRES   REMARKS
CP ATTERBURY + MOSUNNY   70  59  68 CALM      29.94S
COLUMBUS       SUNNY     70  59  68 CALM      29.94S
INDIANAPOLIS   MOSUNNY   70  55  59 CALM      29.92S
-EAGLE CREEK   MOSUNNY   70  56  61 W6        29.93S
KOKOMO *+      PTSUNNY   61  55  82 E3        29.94S
SHELBYVILLE    MOSUNNY   71  59  65 NW3       29.94R

$$

INZ033-034-041-042-049-050-058-059-011700-
EAST CENTRAL INDIANA

CITY           SKY/WX    TMP DP  RH WIND       PRES   REMARKS
MUNCIE         PTSUNNY   69  57  65 NW8       29.94R

$$

INZ060-061-067>069-081>083-085>088-011700-
SOUTHWEST INDIANA

CITY           SKY/WX    TMP DP  RH WIND       PRES   REMARKS
EVANSVILLE     SUNNY     74  61  63 SW8       29.92S
HUNTINGBURG *+ SUNNY     73  63  68 S5        29.93R

$$

INZ062-063-066-070>080-084-089>092-011700-
SOUTH CENTRAL AND SOUTHEAST INDIANA

CITY           SKY/WX    TMP DP  RH WIND       PRES   REMARKS
BLOOMINGTON    MOSUNNY   72  55  55 VRB6      29.93S
MADISON *+     CLOUDY    70  61  73 CALM      29.96S
SEYMOUR +      PTSUNNY   72  63  73 E3        29.94S

$$




USA.gov is the U.S. government's official web portal to all federal, state and local government web resources and services.